Regional Weather Roundup
Issued by NWS

Home | Current Version | Previous Version | Graphics & Text | Print | Product List | Glossary Off
Versions: 1 2 3 4 5 6 7 8 9 10 11 12 13 14 15 16 17 18 19 20 21 22 23 24 25 26 27 28 29 30 31 32 33 34 35 36 37 38 39 40 41 42 43 44 45 46 47 48 49 50

000
ASUS43 KMKX 231410
RWRWI

WISCONSIN REGIONAL WEATHER ROUNDUP
NATIONAL WEATHER SERVICE MILWAUKEE/SULLIVAN WI
800 AM CST TUE JAN 23 2018

NOTE: "FAIR" INDICATES FEW OR NO CLOUDS BELOW 12,000 FEET WITH NO
SIGNIFICANT WEATHER AND/OR OBSTRUCTIONS TO VISIBILITY.

WIZ001-002-006>008-014>016-023>028-231500-
NORTHWEST WISCONSIN

CITY           SKY/WX    TMP DP  RH WIND       PRES   REMARKS
SUPERIOR ARPT  CLOUDY     9   2  74 NW7       30.03R WCI  -2
ASHLAND        CLOUDY    18  14  84 N12       29.97R WCI   5
HAYWARD        CLOUDY    18  15  88 N8        29.92R WCI   8
SIREN          CLOUDY    15   8  76 N8        29.99R WCI   3
CUMBERLAND     CLOUDY    16  10  79 N14       29.92R WCI   1
RICE LAKE      CLOUDY    18  14  86 N12       29.93R WCI   5
CHETEK         CLOUDY    18  15  88 N8        29.91R WCI   8
LADYSMITH      CLOUDY    20  17  89 N16       29.88R WCI   6
EAU CLAIRE     CLOUDY    20  16  84 N9G23     29.90R WCI   9
MENOMONIE      CLOUDY    20  15  80 NW16      29.93R WCI   6
NEW RICHMOND   CLOUDY    16  11  80 NW16      29.96R WCI   1
OSCEOLA        CLOUDY    16  10  77 NW14      30.01R WCI   2
$$

WIZ003>005-009-010-017-018-231500-
NORTH CENTRAL WISCONSIN

CITY           SKY/WX    TMP DP  RH WIND       PRES   REMARKS
MANITOWISH WTR CLOUDY    16  16 100 N10G20    29.82R FOG     WCI   3
ARBOR VITAE    CLOUDY    19  17  92 N17G26    29.80R FOG     WCI   4
WOODRUFF       CLOUDY    19  17  92 N17G26    29.80R FOG     WCI   4
RHINELANDER    MIX PCPN  18  15  88 N10G24    29.77R WCI   6
EAGLE RIVER    LGT SNOW  18  16  95 N17G23    29.76R WCI   2
LAND O LAKES   CLOUDY    18  16  93 N15G23    29.79R FOG     WCI   4
PHILLIPS       CLOUDY    17  15  94 N12G21    29.83R WCI   4
TOMAHAWK       CLOUDY    17  15  88 N13G23    29.80R WCI   4
MEDFORD        CLOUDY    19  16  90 N14G22    29.79R WCI   5
MERRILL        CLOUDY    19  16  87 N17       29.78R WCI   4
$$

WIZ029-030-035-036-043>047-231500-
CENTRAL WISCONSIN

CITY           SKY/WX    TMP DP  RH WIND       PRES   REMARKS
WAUSAU         CLOUDY    20  16  84 N15G21    29.75R WCI   6
MOSINEE        CLOUDY    19  18  93 NW18G28   29.77R WCI   4
MARSHFIELD     CLOUDY    21  18  88 N16G25    29.77R WCI   7
STEVENS POINT  CLOUDY    21  18  91 NW13      29.76R WCI   8
WAUPACA        CLOUDY    27  21  77 NW9       29.75R WCI  18
WAUTOMA        FLURRIES  24  20  84 NW10G18   29.76R WCI  14
WISC RAPIDS    NOT AVBL
CAMP DOUGLAS   LGT SNOW  25  21  86 NW14      29.80R FOG     WCI  13
$$

WIZ011>013-019>022-031-037>040-048>050-231500-
NORTHEAST WISCONSIN

CITY           SKY/WX    TMP DP  RH WIND       PRES   REMARKS
ANTIGO         CLOUDY    19  17  90 N21G28    29.72R FOG     WCI   3
SHAWANO        CLOUDY    27  20  76 N7        29.72R WCI  19
OCONTO         CLOUDY    25  20  82 N8        29.70R WCI  17
STURGEON BAY   FLURRIES  24  21  88 N21       29.66R WCI   9
GREEN BAY      FLURRIES  26  21  81 N13       29.70R WCI  15
MANITOWOC      LGT SNOW  26  23  88 N20       29.68R VSB 1   WCI  12
APPLETON       LGT SNOW  25  19  80 N14G22    29.69R WCI  13
CLINTONVILLE   CLOUDY    27  19  74 N8        29.73R WCI  18
OSHKOSH        LGT SNOW  26  22  84 NW14      29.71R FOG     WCI  14
$$

WIZ032>034-041-042-053>061-231500-
SOUTHWEST WISCONSIN

CITY           SKY/WX    TMP DP  RH WIND       PRES   REMARKS
LA CROSSE      CLOUDY    26  21  81 NW18      29.86R WCI  13
SPARTA         CLOUDY    23  21  91 NW13G21   29.85R WCI  12
VIROQUA        CLOUDY    24  23  98 N15G26    29.80R WCI  11
BOSCOBEL       FLURRIES  28  22  78 NW7       29.84R WCI  21
PRAIRIE DU CHI CLOUDY    28  23  81 NW13      29.85R WCI  18
PLATTEVILLE    CLOUDY    27  24  87 NW17G23   29.80R WCI  15
$$

WIZ056-057-062-063-064-067-068-231500-
SOUTH CENTRAL WISCONSIN

CITY           SKY/WX    TMP DP  RH WIND       PRES   REMARKS
REEDSBURG      LGT SNOW  25  21  87 NW13G18   29.78R WCI  13
BARABOO/DELLS  CLOUDY    25  21  87 NW10G18   29.77R FOG     WCI  14
LONE ROCK      CLOUDY    27  21  78 NW13G21   29.81R WCI  16
MINERAL POINT  MOCLDY    28  27  93 NW18      29.77R WCI  16
MADISON        FLURRIES  26  20  77 N16G26    29.75R WCI  14
MIDDLETON      CLOUDY    28  22  80 N16G23    29.76R WCI  15
WATERTOWN      CLOUDY    26  24  91 NW9G20    29.71R WCI  17
MONROE         CLOUDY    28  23  80 NW8G20    29.74R WCI  20
JANESVILLE     CLOUDY    28  28 100 NW16G22   29.72R WCI  17
$$

WIZ051-052-058>065-066-070>072-231500-
SOUTHEAST WISCONSIN

CITY           SKY/WX    TMP DP  RH WIND       PRES   REMARKS
MILWAUKEE      CLOUDY    30  26  85 NW12G22   29.67R WCI  20
WAUKESHA       CLOUDY    27  25  93 NW15G22   29.68R WCI  15
MILWAUKEE/TIMM CLOUDY    28  23  80 NW15G23   29.68R WCI  17
RACINE         CLOUDY    30  27  88 NW7       29.69R WCI  23
BURLINGTON     CLOUDY    29  25  85 NW9       29.69R WCI  21
KENOSHA        CLOUDY    30  26  85 NW8G18    29.68R WCI  22
FOND DU LAC    CLOUDY    27  21  78 NW14      29.71R WCI  16
SHEBOYGAN      CLOUDY    27  23  85 N20G28    29.67R WCI  13
WEST BEND      CLOUDY    28  23  80 N17G24    29.68R WCI  16
JUNEAU         CLOUDY    25  21  84 NW10G21   29.72R WCI  15
$$

LSZ147-162-231500-
LAKE SUPERIOR

STATION/POSITION TIME  TEMP    WIND        PRES    WAVE
                       AIR SEA DIR/SP/G            HT/PER
                 (UTC) (F)     (DEG/KT/KT) (MB)    (FT/S)
DEVILS ISLAND    1400   19      30/ 17/ 19 1016.2R
SAXON HARBOR     1330   21     360/ 15/ 17 1013.9R
$$

LMZ867-665-643>646-231500-
LAKE MICHIGAN

STATION/POSITION TIME  TEMP    WIND        PRES    WAVE
                       AIR SEA DIR/SP/G            HT/PER
                 (UTC) (F)     (DEG/KT/KT) (MB)    (FT/S)
NORTHPORT PIER   1340   24     350/  7/ 12 1004.4R
KEWAUNEE LAKESHO 1342   25     340/ 15/ 22 1003.7R
SHEBOYGAN LAKESH 1400   27     330/ 19/ 26 1005.5R
PORT WASHINGTON  1400   28     330/  9/ 18 1006.4
MILWAUKEE LAKESH 1350   28     330/  8/ 13   N/A
KENOSHA   LAKESH 1400   29     320/ 10/ 18 1005.4
$$

TC  - TEMPERATURE IN CELSIUS
VSB - VISIBILITY IN STATUTE MILES
WCI - WIND CHILL INDEX
HX  - HEAT INDEX




USA.gov is the U.S. government's official web portal to all federal, state and local government web resources and services.